Flag for Canada Weather past 2 weeks in Grise Fiord, Nunavut Territory, Canada

Now
45 °F

Overcast.


Feels Like: 39 °F
Forecast: 37 / 42 °F
Wind: 12 mph from South

Location: Thule A. B.

Current Time: Jul 29, 2014 at 9:39:22 PM

Latest Report: Jul 29, 2014 at 8:58 PM


Visibility: N/A

Pressure: 30.13 "Hg

Humidity: 71%

Dew point: 36 °F

Location of Grise FiordLocation

Historic Weather in Grise Fiord — Graph

°F

Grise Fiord temperature yesterday

Maximum temperature yesterday: 45 °F (at 4:58 PM)
Minimum temperature yesterday: 36 °F (at 12:58 AM)
Average temperature yesterday: 40 °F

Past Weeks' High & Low Weather Summary

 TemperatureHumidityPressure
High55 °F (Jul 20, 7:58 AM)93% (Jul 28, 1:58 AM)30.17 "Hg (Jul 28, 1:58 AM)
Low36 °F (Jul 15, 6:58 PM)36% (Jul 20, 7:58 AM)29.38 "Hg (Jul 21, 12:58 AM)
Average43 °F76%29.77 "Hg
* Reported Jul 14 7:58 PM — Jul 29 7:58 PM, Grise Fiord, Weather by CustomWeather, © 2014

Note: Actual official high and low records may vary slightly from our data, if they occured in-between our weather recording intervals... More about our weather records

Advertising

Grise Fiord weather history for previous 24 hours

 ConditionsComfort  
Time TempWeatherWind HumidityBarometerVisibility
7:58 PM
Jul 29
45 °FOvercast.16 mph71%30.13 "HgN/A
6:58 PM46 °FOvercast.8 mph71%30.13 "HgN/A
5:58 PM46 °FMostly cloudy.9 mph66%30.12 "HgN/A
5:57 PM46 °FMostly cloudy.10 mph66%30.17 "HgN/A
4:58 PM45 °FOvercast.18 mph71%30.12 "HgN/A
3:58 PM45 °FOvercast.23 mph71%30.11 "HgN/A
2:58 PM46 °FMostly cloudy.23 mph71%30.10 "HgN/A
1:58 PM48 °FMore clouds than sun.20 mph66%30.09 "HgN/A
12:58 PM48 °FScattered clouds.20 mph66%30.08 "HgN/A
11:58 AM46 °FOvercast.20 mph66%30.08 "HgN/A
10:58 AM46 °FMore clouds than sun.16 mph66%30.07 "HgN/A
9:58 AM45 °FCloudy.15 mph76%30.06 "HgN/A
8:58 AM45 °FOvercast.7 mph76%30.07 "HgN/A
7:58 AM43 °FOvercast.7 mph87%30.05 "HgN/A
7:02 AM43 °FMostly cloudy.21 mph76%30.08 "HgN/A
6:58 AM43 °FLight rain. Mostly cloudy.18 mph76%30.03 "HgN/A
6:01 AM39 °FOvercast.8 mph87%30.08 "HgN/A
5:58 AM41 °FOvercast.8 mph81%30.03 "HgN/A
4:58 AM41 °FCloudy.7 mph81%30.01 "HgN/A
3:58 AM41 °FLight rain. Overcast.8 mph81%30.01 "HgN/A
2:58 AM37 °FOvercast.2 mph93%30.01 "HgN/A
1:58 AM39 °FMostly cloudy.9 mph87%29.99 "HgN/A
12:58 AM43 °FOvercast.8 mph76%29.98 "HgN/A
11:58 PM
Jul 28
43 °FOvercast.No wind81%29.97 "HgN/A
10:58 PM39 °FOvercast.1 mph87%29.96 "HgN/A
9:58 PM41 °FOvercast.2 mph87%29.95 "HgN/A
Weather by CustomWeather, © 2014

See weather overviewHow to use our weather pages